Home   Weather   Ghazni   Past weeks

Flag for Afghanistan Past Weather in Ghazni, Afghanistan — Yesterday and Last 2 Weeks

Now
82 °F

Clear.


Feels Like: 85 °F
Forecast: 44 / 82 °F
Wind: 7 mph from Northwest

Location: Peshawar Airport

Current Time: Sep 27, 2016 at 1:15:22 AM

Latest Report: Sep 27, 2016 at 1:00 AM


Visibility: 2 mi

Pressure: 29.74 "Hg (23.21 "Hg at 2184m altitude)

Humidity: 62%

Dew Point: 68 °F

Location of GhazniLocation

Past Weather in Ghazni — Graph

°F

Ghazni Temperature Yesterday

Maximum temperature yesterday: 93 °F (at 1:30 PM)
Minimum temperature yesterday: 77 °F (at 6:30 AM)
Average temperature yesterday: 87 °F

High & Low Weather Summary for the Past Weeks

 TemperatureHumidityPressure
High99 °F (Sep 16, 2:30 PM)83% (Sep 25, 5:30 AM)29.92 "Hg (Sep 25, 5:30 AM)
Low72 °F (Sep 14, 4:30 AM)36% (Sep 13, 12:30 PM)29.59 "Hg (Sep 20, 12:30 AM)
Average85 °F57%29.72 "Hg
* Reported Sep 11 11:30 PM — Sep 27 12:00 AM, Ghazni, Weather by CustomWeather, © 2016

Note: Actual official high and low records may vary slightly from our data, if they occured in-between our weather recording intervals... More about our weather records

Advertising

Ghazni Weather History for the Previous 24 Hours

Scroll right to see more
 ConditionsComfort  
Time TempWeatherWind HumidityBarometerVisibility
12:00 AM
Tue, Sep 27
84 °FClear.7 mph58%29.74 "Hg2 mi
11:00 PM
Mon, Sep 26
84 °FClear.9 mph58%29.74 "Hg2 mi
10:30 PM84 °FClear.9 mph58%29.74 "Hg2 mi
10:00 PM86 °FHaze.7 mph59%29.74 "Hg2 mi
9:30 PM86 °FHaze.7 mph59%29.74 "Hg2 mi
9:00 PM88 °FHaze.7 mph55%29.74 "Hg2 mi
8:30 PM88 °FHaze.7 mph55%29.74 "Hg2 mi
8:00 PM88 °FHaze.7 mph55%29.74 "Hg2 mi
7:30 PM88 °FHaze.7 mph55%29.74 "Hg2 mi
7:00 PM90 °FHaze.9 mph52%29.71 "Hg2 mi
6:30 PM90 °FHaze.9 mph52%29.71 "Hg2 mi
6:00 PM91 °FHaze.12 mph52%29.71 "Hg2 mi
5:30 PM91 °FHaze.12 mph52%29.71 "Hg2 mi
5:00 PM93 °FHaze.9 mph53%29.68 "Hg2 mi
4:30 PM93 °FHaze.9 mph53%29.68 "Hg2 mi
4:00 PM93 °FHaze.12 mph53%29.68 "Hg2 mi
3:30 PM93 °FHaze.12 mph53%29.68 "Hg2 mi
3:00 PM93 °FSunny.12 mph53%29.71 "Hg2 mi
2:30 PM93 °FSunny.12 mph53%29.71 "Hg2 mi
2:00 PM93 °FSunny.9 mph53%29.71 "Hg2 mi
1:30 PM93 °FSunny.9 mph53%29.71 "Hg2 mi
1:00 PM91 °FSunny.7 mph56%29.74 "Hg2 mi
12:30 PM91 °FSunny.7 mph56%29.74 "Hg2 mi
12:00 PM90 °FSunny.7 mph59%29.77 "Hg2 mi
11:30 AM90 °FSunny.7 mph59%29.77 "Hg2 mi
11:00 AM88 °FSunny.7 mph59%29.77 "Hg2 mi
10:30 AM88 °FSunny.7 mph59%29.77 "Hg1 mi
10:00 AM86 °FSunny.7 mph62%29.80 "Hg1 mi
9:30 AM86 °FSunny.7 mph62%29.80 "Hg1 mi
9:00 AM84 °FHaze.7 mph66%29.80 "Hg1 mi
8:30 AM84 °FHaze.7 mph66%29.80 "Hg1 mi
8:00 AM81 °FHaze.7 mph70%29.77 "Hg1 mi
7:30 AM81 °FHaze.7 mph70%29.77 "Hg1 mi
6:30 AM77 °FHaze.5 mph74%29.74 "Hg2 mi
5:30 AM79 °FClear.No wind70%29.71 "Hg2 mi
4:29 AM79 °FClear.No wind70%29.71 "Hg2 mi
3:30 AM81 °FClear.No wind66%29.68 "Hg2 mi
2:30 AM81 °FHaze.5 mph66%29.68 "Hg2 mi
1:30 AM82 °FHaze.No wind66%29.68 "Hg2 mi
Weather by CustomWeather, © 2016

See weather overviewHow to use our weather pages